Location: Brahman Valley
(40.6513°N, 111.8855°W)
Time: 21:52:24
(UTC+00:00)

Vanguard 2 - Pass Details

Date: 14 May 2021
Orbit: 552 x 2937 km, 32.9° (Epoch: 14 June)

Event Time Altitude Azimuth Distance (km) Brightness Sun altitude
Rises 20:55:15 0° 270° (W) 6,690 12.6 60.7°
Reaches altitude 10° 21:06:17 10° 238° (WSW) 5,747 12.7 59.1°
Maximum altitude 21:08:58 11° 229° (SW) 5,661 12.6 58.7°
Drops below altitude 10° 21:11:36 10° 220° (SW) 5,642 12.6 58.3°
Sets 21:22:00 0° 188° (S) 6,187 12.4 56.6°
